This is the latest recevied weather packets stored in our database for station/object KF5JED-13. If no packets are shown the sender has not sent any weather packets the latest 10 day(s).
| Time | Temp. | Humidity | Pressure | Rain* | Wind** | Luminosity | Snow |
|---|---|---|---|---|---|---|---|
| 1778318085 | 14.44° C | 50% | 1013.3 hPa | 0 mm | - | 0 W/m² | - |
| 1778317782 | 15° C | 49% | 1013.3 hPa | 0 mm | - | 0 W/m² | - |
| 1778317479 | 15° C | 49% | 1013.5 hPa | 0 mm | - | 0 W/m² | - |
| 1778317177 | 15° C | 48% | 1013.6 hPa | 0 mm | - | 0 W/m² | - |
| 1778316873 | 15.56° C | 48% | 1013.6 hPa | 0 mm | - | 0 W/m² | - |
| 1778316569 | 15.56° C | 48% | 1013.5 hPa | 0 mm | - | 0 W/m² | - |
| 1778316266 | 15.56° C | 47% | 1013.2 hPa | 0 mm | - | 0 W/m² | - |
| 1778315964 | 15.56° C | 46% | 1013.3 hPa | 0 mm | - | 0 W/m² | - |
| 1778315661 | 16.11° C | 46% | 1013.6 hPa | 0 mm | - | 0 W/m² | - |
| 1778315358 | 16.11° C | 46% | 1013.3 hPa | 0 mm | - | 0 W/m² | - |
| 1778315055 | 16.11° C | 45% | 1013.2 hPa | 0 mm | - | 0 W/m² | - |
| 1778314752 | 16.11° C | 45% | 1013 hPa | 0 mm | - | 0 W/m² | - |
| 1778314449 | 16.11° C | 45% | 1013 hPa | 0 mm | - | 0 W/m² | - |
| 1778314147 | 16.11° C | 46% | 1013.1 hPa | 0 mm | - | 0 W/m² | - |
| 1778313844 | 15.56° C | 46% | 1013.2 hPa | 0 mm | - | 0 W/m² | - |
| 1778313543 | 16.11° C | 46% | 1013.3 hPa | 0 mm | - | 0 W/m² | - |
| 1778313239 | 15.56° C | 46% | 1013.5 hPa | 0 mm | - | 0 W/m² | - |
| 1778312936 | 15.56° C | 47% | 1013.2 hPa | 0 mm | - | 0 W/m² | - |
| 1778312634 | 15° C | 47% | 1013.5 hPa | 0 mm | - | 0 W/m² | - |
| 1778312330 | 15° C | 47% | 1013.3 hPa | 0 mm | - | 0 W/m² | - |
| 1778312027 | 15° C | 47% | 1013.7 hPa | 0 mm | - | 0 W/m² | - |
| 1778311723 | 15.56° C | 46% | 1013.6 hPa | 0 mm | - | 0 W/m² | - |
| 1778311420 | 16.11° C | 45% | 1013.2 hPa | 0 mm | - | 0 W/m² | - |
| 1778311116 | 16.67° C | 44% | 1013.5 hPa | 0 mm | - | 0 W/m² | - |
| 1778310813 | 16.67° C | 44% | 1013.7 hPa | 0 mm | - | 0 W/m² | - |
* Rain latest hour (hover to see other rain measurements)
** Current wind speed in m/s (hover to see current wind gust speed)